datetime,ave air temp
2001-09-04,14.9
2001-09-05,8.78
2001-09-06,8.78
2001-09-07,12.2
2001-09-08,11.3
2001-09-09,13.64
2001-09-10,15.8
2001-09-11,15.44
2001-09-12,15.08
2001-09-13,12.56
2001-09-14,12.2
2001-09-15,11.3
2001-09-16,11.48
2001-09-17,50.18
2001-09-18,50.18
2001-09-19,47.3
2001-09-20,49.64
2001-09-21,48.38
2001-09-22,53.24
2001-09-23,53.06
2001-09-24,58.64
2001-09-25,43.34
2001-09-26,44.96
2001-09-27,46.4
2001-09-28,40.28
2001-09-29,45.5
2001-09-30,50.9
2001-10-01,51.8
2001-10-02,50.72
2001-10-03,49.1
2001-10-04,47.48
2001-10-05,46.4
2001-10-06,44.96
2001-10-07,44.06
2001-10-08,38.3
2001-10-09,31.82
2001-10-10,39.74
2001-10-11,38.3
2001-10-12,39.2
2001-10-13,43.34
2001-10-14,41.54
2001-10-15,45.68
2001-10-16,49.82
2001-10-17,36.32
2001-10-18,35.06
2001-10-19,43.52
2001-10-20,41.36
2001-10-21,42.26
2001-10-22,41.72
2001-10-23,32.72
2001-10-24,29.66
2001-10-25,35.78
2001-10-26,47.66
2001-10-27,46.76
2001-10-28,42.62
2001-10-29,42.8
2001-10-30,40.46
2001-10-31,37.58
2001-11-01,37.94
2001-11-02,34.88
2001-11-03,36.86
2001-11-04,40.1
2001-11-05,35.6
2001-11-06,33.08
2001-11-07,27.86
2001-11-08,35.96
2001-11-09,35.6
2001-11-10,35.96
2001-11-11,40.46
2001-11-12,41.18
2001-11-13,34.88
2001-11-14,40.1
2001-11-15,41.36
2001-11-16,39.02
2001-11-17,29.3
2001-11-18,31.46
2001-11-19,41.72
2001-11-20,35.78
2001-11-21,34.34
2001-11-22,30.92
2001-11-23,26.24
2001-11-24,27.14
2001-11-25,25.7
2001-11-26,20.66
2001-11-27,13.64
2001-11-28,24.98
2001-11-29,25.16
2001-11-30,26.6
2001-12-01,28.94
2001-12-02,30.02
2001-12-03,21.56
2001-12-04,23.0
2001-12-05,29.66
2001-12-06,31.46
2001-12-07,21.56
2001-12-08,31.64
2001-12-09,19.58
2001-12-10,21.56
2001-12-11,24.62
2001-12-12,23.0
2001-12-13,31.46
2001-12-14,21.56
2001-12-15,23.36
2001-12-16,31.64
2001-12-17,27.68
2001-12-18,28.4
2001-12-19,32.54
2001-12-20,25.88
2001-12-21,18.32
2001-12-22,27.5
2001-12-23,20.3
2001-12-24,18.68
2001-12-25,27.86
2001-12-26,33.26
2001-12-27,35.6
2001-12-28,33.26
2001-12-29,34.52
2001-12-30,35.06
2001-12-31,34.16
2002-01-01,36.68
2002-01-02,35.24
2002-01-03,26.96
2002-01-04,26.6
2002-01-05,34.16
2002-01-06,37.4
2002-01-07,39.92
2002-01-08,33.98
2002-01-09,26.06
2002-01-10,29.12
2002-01-11,39.92
2002-01-12,31.82
2002-01-13,25.7
2002-01-14,19.04
2002-01-15,18.14
2002-01-16,16.7
2002-01-17,17.96
2002-01-18,14.0
2002-01-19,23.36
2002-01-20,27.32
2002-01-21,22.82
2002-01-22,18.5
2002-01-23,21.92
2002-01-24,30.38
2002-01-25,29.84
2002-01-26,22.64
2002-01-27,8.96
2002-01-28,1.04
2002-01-29,0.86
2002-01-30,7.7
2002-01-31,18.14
2002-02-01,23.9
2002-02-02,23.0
2002-02-03,26.42
2002-02-04,21.38
2002-02-05,30.74
2002-02-06,35.24
2002-02-07,30.56
2002-02-08,21.2
2002-02-09,19.04
2002-02-10,33.26
2002-02-11,30.56
2002-02-12,28.4
2002-02-13,33.8
2002-02-14,26.6
2002-02-15,31.46
2002-02-16,34.34
2002-02-17,32.36
2002-02-18,26.06
2002-02-19,32.0
2002-02-20,36.14
2002-02-21,42.08
2002-02-22,43.7
2002-02-23,32.72
2002-02-24,28.4
2002-02-25,24.26
2002-02-26,30.56
2002-02-27,29.3
2002-02-28,22.1
2002-03-01,20.12
2002-03-02,20.84
2002-03-03,24.8
2002-03-04,28.4
2002-03-05,33.98
2002-03-06,34.34
2002-03-07,23.18
2002-03-08,16.88
2002-03-09,28.76
2002-03-10,31.1
2002-03-11,35.78
2002-03-12,29.48
2002-03-13,22.64
2002-03-14,21.56
2002-03-15,20.12
2002-03-16,19.94
2002-03-17,18.68
2002-03-18,17.42
2002-03-19,34.88
2002-03-20,39.38
2002-03-21,39.56
2002-03-22,40.64
2002-03-23,34.16
2002-03-24,32.54
2002-03-25,31.46
2002-03-26,34.16
2002-03-27,37.76
2002-03-28,37.4
2002-03-29,37.58
2002-03-30,37.94
2002-03-31,39.2
2002-04-01,42.26
2002-04-02,41.72
2002-04-03,42.26
2002-04-04,45.86
2002-04-05,44.96
2002-04-06,38.84
2002-04-07,37.04
2002-04-08,40.46
2002-04-09,38.3
2002-04-10,39.56
2002-04-11,41.18
2002-04-12,42.8
2002-04-13,47.12
2002-04-14,40.82
2002-04-15,27.68
2002-04-16,28.4
2002-04-17,26.06
2002-04-18,28.76
2002-04-19,34.16
2002-04-20,34.34
2002-04-21,38.3
2002-04-22,41.9
2002-04-23,37.76
2002-04-24,40.1
2002-04-25,42.98
2002-04-26,36.68
2002-04-27,32.72
2002-04-28,36.68
2002-04-29,35.96
2002-04-30,34.88
2002-05-01,41.72
2002-05-02,42.62
2002-05-03,40.28
2002-05-04,42.26
2002-05-05,42.44
2002-05-06,39.2
2002-05-07,30.92
2002-05-08,35.24
2002-05-09,36.86
2002-05-10,32.9
2002-05-11,39.56
2002-05-12,47.84
2002-05-13,47.48
2002-05-14,40.82
2002-05-15,40.28
2002-05-16,44.96
2002-05-17,48.02
2002-05-18,50.36
2002-05-19,41.72
2002-05-20,37.04
2002-05-21,34.52
2002-05-22,34.88
2002-05-23,41.18
2002-05-24,46.4
2002-05-25,48.74
2002-05-26,50.0
2002-05-27,49.64
2002-05-28,52.7
2002-05-29,57.74
2002-05-30,54.14
2002-05-31,55.22
2002-06-01,50.36
2002-06-02,46.76
2002-06-03,50.18
2002-06-04,52.34
2002-06-05,53.6
2002-06-06,48.38
2002-06-07,42.26
2002-06-08,33.26
2002-06-09,38.3
2002-06-10,45.14
2002-06-11,49.28
2002-06-12,55.76
2002-06-13,58.64
2002-06-14,58.46
2002-06-15,58.46
2002-06-16,54.86
2002-06-17,48.2
2002-06-18,47.12
2002-06-19,47.12
2002-06-20,54.32
2002-06-21,55.58
2002-06-22,55.76
2002-06-23,55.94
2002-06-24,58.64
2002-06-25,64.04
2002-06-26,63.32
2002-06-27,60.08
2002-06-28,58.82
2002-06-29,56.84
2002-06-30,53.24
2002-07-01,54.32
2002-07-02,59.72
2002-07-03,55.76
2002-07-04,51.8
2002-07-05,56.48
2002-07-06,59.18
2002-07-07,58.82
2002-07-08,53.6
2002-07-09,64.4
2002-07-10,69.8
2002-07-11,73.94
2002-07-12,70.88
2002-07-13,67.1
2002-07-14,64.76
2002-07-15,62.42
2002-07-16,59.72
2002-07-17,57.92
2002-07-18,60.26
2002-07-19,61.16
2002-07-20,60.8
2002-07-21,64.94
2002-07-22,59.54
2002-07-23,57.02
2002-07-24,58.28
2002-07-25,57.56
2002-07-26,58.64
2002-07-27,56.12
2002-07-28,59.9
2002-07-29,61.34
2002-07-30,59.0
2002-07-31,56.48
2002-08-01,57.02
2002-08-02,54.14
2002-08-03,55.04
2002-08-04,41.9
2002-08-05,42.26
2002-08-06,41.54
2002-08-07,46.04
2002-08-08,51.44
2002-08-09,57.38
2002-08-10,60.26
2002-08-11,59.0
2002-08-12,61.16
2002-08-13,63.14
2002-08-14,63.5
2002-08-15,62.24
2002-08-16,59.0
2002-08-17,56.48
2002-08-18,54.14
2002-08-19,53.24
2002-08-20,44.42
2002-08-21,44.6
2002-08-22,51.26
2002-08-23,50.54
2002-08-24,51.26
2002-08-25,53.06
2002-08-26,50.9
2002-08-27,52.88
2002-08-28,55.4
2002-08-29,57.02
2002-08-30,55.94
2002-08-31,51.44
2002-09-01,56.3
2002-09-02,58.28
2002-09-03,56.66
2002-09-04,52.52
2002-09-05,46.58
2002-09-06,39.02
2002-09-07,38.3
2002-09-08,40.28
2002-09-09,48.38
2002-09-10,52.88
2002-09-11,54.86
2002-09-12,55.04
2002-09-13,57.74
2002-09-14,58.82
2002-09-15,60.08
2002-09-16,49.82
2002-09-17,45.5
2002-09-18,46.58
2002-09-19,49.64
2002-09-20,49.1
2002-09-21,50.0
2002-09-22,52.88
2002-09-23,54.5
2002-09-24,51.8
2002-09-25,44.96
2002-09-26,48.02
2002-09-27,42.44
2002-09-28,42.98
2002-09-29,38.84
2002-09-30,34.16
2002-10-01,31.64
2002-10-02,36.86
2002-10-03,38.3
2002-10-04,42.08
2002-10-05,43.34
2002-10-06,45.68
2002-10-07,45.86
2002-10-08,42.8
2002-10-09,41.72
2002-10-10,40.1
2002-10-11,29.3
2002-10-12,37.22
2002-10-13,38.3
2002-10-14,41.72
2002-10-15,42.98
2002-10-16,43.52
2002-10-17,42.62
2002-10-18,41.9
2002-10-19,41.54
2002-10-20,37.04
2002-10-21,39.02
2002-10-22,34.34
2002-10-23,34.52
2002-10-24,32.72
2002-10-25,32.36
2002-10-26,29.84
2002-10-27,32.18
2002-10-28,34.88
2002-10-29,28.4
2002-10-30,17.96
2002-10-31,17.78
2002-11-01,23.36
2002-11-02,19.4
2002-11-03,25.16
2002-11-04,30.02
2002-11-05,37.04
2002-11-06,44.6
2002-11-07,37.76
2002-11-08,33.08
2002-11-09,31.82
2002-11-10,31.82
2002-11-11,34.7
2002-11-12,39.02
2002-11-13,31.64
2002-11-14,32.0
2002-11-15,35.78
2002-11-16,41.0
2002-11-17,30.56
2002-11-18,36.86
2002-11-19,40.64
2002-11-20,42.44
2002-11-21,40.46
2002-11-22,35.6
2002-11-23,35.06
2002-11-24,30.92
2002-11-25,25.16
2002-11-26,29.84
2002-11-27,35.24
2002-11-28,34.88
2002-11-29,35.24
2002-11-30,34.88
2002-12-01,30.02
2002-12-02,28.76
2002-12-03,28.76
2002-12-04,33.8
2002-12-05,30.92
2002-12-06,32.54
2002-12-07,28.4
2002-12-08,33.62
2002-12-09,36.68
2002-12-10,31.82
2002-12-11,32.54
2002-12-12,35.96
2002-12-13,35.06
2002-12-14,37.22
2002-12-15,31.1
2002-12-16,29.12
2002-12-17,24.08
2002-12-18,24.26
2002-12-19,26.06
2002-12-20,28.04
2002-12-21,27.32
2002-12-22,23.9
2002-12-23,10.4
2002-12-24,20.12
2002-12-25,26.24
2002-12-26,29.84
2002-12-27,34.88
2002-12-28,33.26
2002-12-29,26.96
2002-12-30,29.12
2002-12-31,26.96
2003-01-01,29.48
2003-01-02,35.96
2003-01-03,38.3
2003-01-04,39.02
2003-01-05,28.4
2003-01-06,28.94
2003-01-07,37.04
2003-01-08,28.04
2003-01-09,26.6
2003-01-10,33.98
2003-01-11,33.98
2003-01-12,34.7
2003-01-13,37.58
2003-01-14,33.8
2003-01-15,30.92
2003-01-16,30.74
2003-01-17,34.52
2003-01-18,33.8
2003-01-19,32.18
2003-01-20,31.82
2003-01-21,35.78
2003-01-22,38.12
2003-01-23,33.8
2003-01-24,35.42
2003-01-25,39.92
2003-01-26,42.08
2003-01-27,33.26
2003-01-28,26.42
2003-01-29,35.96
2003-01-30,41.9
2003-01-31,42.44
2003-02-01,30.92
2003-02-02,27.32
2003-02-03,19.4
2003-02-04,15.26
2003-02-05,18.68
2003-02-06,22.1
2003-02-07,18.5
2003-02-08,19.04
2003-02-09,24.26
2003-02-10,27.68
2003-02-11,25.7
2003-02-12,36.68
2003-02-13,35.78
2003-02-14,35.78
2003-02-15,35.96
2003-02-16,29.66
2003-02-17,29.3
2003-02-18,28.58
2003-02-19,31.64
2003-02-20,31.1
2003-02-21,34.52
2003-02-22,28.22
2003-02-23,23.0
2003-02-24,26.6
2003-02-25,18.86
2003-02-26,17.6
2003-02-27,18.5
2003-02-28,18.32
2003-03-01,24.62
2003-03-02,25.16
2003-03-03,26.42
2003-03-04,21.56
2003-03-05,27.86
2003-03-06,32.72
2003-03-07,33.26
2003-03-08,38.3
2003-03-09,35.96
2003-03-10,39.02
2003-03-11,39.92
2003-03-12,42.8
2003-03-13,41.0
2003-03-14,35.6
2003-03-15,32.54
2003-03-16,31.46
2003-03-17,28.58
2003-03-18,25.16
2003-03-19,32.36
2003-03-20,33.8
2003-03-21,37.04
2003-03-22,35.78
2003-03-23,27.5
2003-03-24,32.54
2003-03-25,36.5
2003-03-26,31.28
2003-03-27,28.4
2003-03-28,31.46
2003-03-29,38.84
2003-03-30,43.52
2003-03-31,43.7
2003-04-01,31.64
2003-04-02,24.26
2003-04-03,25.16
2003-04-04,26.78
2003-04-05,25.7
2003-04-06,30.56
2003-04-07,38.12
2003-04-08,44.6
2003-04-09,44.06
2003-04-10,43.52
2003-04-11,40.28
2003-04-12,34.52
2003-04-13,31.82
2003-04-14,31.28
2003-04-15,29.12
2003-04-16,32.54
2003-04-17,32.9
2003-04-18,31.28
2003-04-19,34.7
2003-04-20,40.1
2003-04-21,36.5
2003-04-22,36.86
2003-04-23,36.32
2003-04-24,30.92
2003-04-25,28.4
2003-04-26,28.22
2003-04-27,30.74
2003-04-28,34.16
2003-04-29,33.8
2003-04-30,34.7
2003-05-01,37.58
2003-05-02,39.02
2003-05-03,36.32
2003-05-04,32.18
2003-05-05,34.34
2003-05-06,34.52
2003-05-07,36.86
2003-05-08,31.1
2003-05-09,33.98
2003-05-10,36.68
2003-05-11,36.86
2003-05-12,39.92
2003-05-13,46.04
2003-05-14,47.12
2003-05-15,39.92
2003-05-16,35.6
2003-05-17,32.9
2003-05-18,31.64
2003-05-19,39.92
2003-05-20,45.68
2003-05-21,49.46
2003-05-22,53.24
2003-05-23,56.48
2003-05-24,55.04
2003-05-25,48.92
2003-05-26,50.72
2003-05-27,57.02
2003-05-28,60.62
2003-05-29,59.54
2003-05-30,52.52
2003-05-31,51.26
2003-06-01,51.62
2003-06-02,52.16
2003-06-03,55.94
2003-06-04,53.06
2003-06-05,56.12
2003-06-06,60.62
2003-06-07,62.06
2003-06-08,58.82
2003-06-09,52.52
2003-06-10,51.8
2003-06-11,50.36
2003-06-12,51.62
2003-06-13,50.54
2003-06-14,51.8
2003-06-15,54.5
2003-06-16,58.82
2003-06-17,64.22
2003-06-18,58.46
2003-06-19,50.18
2003-06-20,42.44
2003-06-21,41.72
2003-06-22,43.16
2003-06-23,42.26
2003-06-24,45.5
2003-06-25,51.62
2003-06-26,56.84
2003-06-27,59.72
2003-06-28,60.44
2003-06-29,60.98
2003-06-30,56.48
2003-07-01,53.06
2003-07-02,53.24
2003-07-03,53.96
2003-07-04,56.3
2003-07-05,57.92
2003-07-06,58.28
2003-07-07,55.94
2003-07-08,52.16
2003-07-09,58.82
2003-07-10,59.54
2003-07-11,60.44
2003-07-12,57.92
2003-07-13,53.78
2003-07-14,58.28
2003-07-15,59.9
2003-07-16,60.08
2003-07-17,61.52
2003-07-18,64.04
2003-07-19,67.28
2003-07-20,67.82
2003-07-21,69.44
2003-07-22,70.16
2003-07-23,65.66
2003-07-24,59.72
2003-07-25,60.44
2003-07-26,61.7
2003-07-27,63.14
2003-07-28,65.48
2003-07-29,68.18
2003-07-30,68.54
2003-07-31,65.84
2003-08-01,62.42
2003-08-02,55.22
2003-08-03,54.14
2003-08-04,54.14
2003-08-05,54.68
2003-08-06,52.16
2003-08-07,53.42
2003-08-08,52.88
2003-08-09,56.3
2003-08-10,59.72
2003-08-11,52.7
2003-08-12,51.26
2003-08-13,51.8
2003-08-14,58.64
2003-08-15,62.96
2003-08-16,54.14
2003-08-17,58.64
2003-08-18,
2003-08-19,69.08
2003-08-20,60.08
2003-08-21,53.06
2003-08-22,51.08
2003-08-23,50.72
2003-08-24,54.68
2003-08-25,57.92
2003-08-26,53.96
2003-08-27,55.58
2003-08-28,57.2
2003-08-29,56.66
2003-08-30,59.18
2003-08-31,60.8
2003-09-01,59.9
2003-09-02,59.72
2003-09-03,63.14
2003-09-04,61.34
2003-09-05,55.94
2003-09-06,55.04
2003-09-07,50.18
2003-09-08,42.98
2003-09-09,41.72
2003-09-10,43.34
2003-09-11,46.76
2003-09-12,46.04
2003-09-13,46.76
2003-09-14,48.74
2003-09-15,50.36
2003-09-16,39.74
2003-09-17,37.94
2003-09-18,43.34
2003-09-19,47.3
2003-09-20,48.92
2003-09-21,51.08
2003-09-22,52.88
2003-09-23,51.62
2003-09-24,52.88
2003-09-25,51.62
2003-09-26,57.38
2003-09-27,57.92
2003-09-28,55.94
2003-09-29,53.24
2003-09-30,47.66
2003-10-01,51.8
2003-10-02,46.76
2003-10-03,48.02
2003-10-04,49.28
2003-10-05,48.74
2003-10-06,50.36
2003-10-07,48.02
2003-10-08,49.82
2003-10-09,38.48
2003-10-10,31.28
2003-10-11,41.36
2003-10-12,35.24
2003-10-13,38.12
2003-10-14,41.54
2003-10-15,41.54
2003-10-16,48.74
2003-10-17,53.96
2003-10-18,55.22
2003-10-19,52.88
2003-10-20,51.44
2003-10-21,52.52
2003-10-22,55.4
2003-10-23,38.66
2003-10-24,37.58
2003-10-25,41.36
2003-10-26,45.32
2003-10-27,47.84
2003-10-28,46.76
2003-10-29,33.26
2003-10-30,22.64
2003-10-31,17.6
2003-11-01,18.5
2003-11-02,27.14
2003-11-03,21.38
2003-11-04,25.52
2003-11-05,28.04
2003-11-06,26.96
2003-11-07,35.6
2003-11-08,37.04
2003-11-09,34.52
2003-11-10,33.08
2003-11-11,34.16
2003-11-12,32.9
2003-11-13,30.56
2003-11-14,34.88
2003-11-15,32.54
2003-11-16,32.54
2003-11-17,33.08
2003-11-18,40.64
2003-11-19,39.92
2003-11-20,24.44
2003-11-21,20.84
2003-11-22,11.84
2003-11-23,22.64
2003-11-24,22.28
2003-11-25,23.18
2003-11-26,22.1
2003-11-27,25.52
2003-11-28,36.86
2003-11-29,35.42
2003-11-30,36.14
2003-12-01,35.78
2003-12-02,36.5
2003-12-03,33.98
2003-12-04,35.06
2003-12-05,37.76
2003-12-06,34.52
2003-12-07,28.22
2003-12-08,23.72
2003-12-09,29.84
2003-12-10,29.12
2003-12-11,28.4
2003-12-12,30.92
2003-12-13,33.08
2003-12-14,24.62
2003-12-15,16.16
2003-12-16,28.58
2003-12-17,29.84
2003-12-18,31.28
2003-12-19,42.98
2003-12-20,32.9
2003-12-21,28.94
2003-12-22,29.48
2003-12-23,35.6
2003-12-24,30.92
2003-12-25,23.36
2003-12-26,10.4
2003-12-27,19.22
2003-12-28,24.44
2003-12-29,25.88
2003-12-30,23.9
2003-12-31,26.96
2004-01-01,25.52
2004-01-02,19.58
2004-01-03,18.68
2004-01-04,20.12
2004-01-05,18.68
2004-01-06,29.66
2004-01-07,30.02
2004-01-08,36.68
2004-01-09,39.92
2004-01-10,34.16
2004-01-11,34.52
2004-01-12,39.56
2004-01-13,41.36
2004-01-14,39.74
2004-01-15,32.9
2004-01-16,27.5
2004-01-17,29.84
2004-01-18,31.64
2004-01-19,30.74
2004-01-20,26.42
2004-01-21,18.68
2004-01-22,22.82
2004-01-23,30.2
2004-01-24,27.32
2004-01-25,
2004-01-26,25.7
2004-01-27,29.84
2004-01-28,31.82
2004-01-29,36.14
2004-01-30,26.06
2004-01-31,21.02
2004-02-01,29.48
2004-02-02,30.92
2004-02-03,26.06
2004-02-04,20.66
2004-02-05,18.5
2004-02-06,30.56
2004-02-07,23.72
2004-02-08,19.04
2004-02-09,19.04
2004-02-10,22.1
2004-02-11,24.62
2004-02-12,25.88
2004-02-13,33.8
2004-02-14,31.1
2004-02-15,32.18
2004-02-16,33.98
2004-02-17,34.88
2004-02-18,32.0
2004-02-19,25.88
2004-02-20,22.64
2004-02-21,30.02
2004-02-22,32.54
2004-02-23,32.9
2004-02-24,31.28
2004-02-25,32.0
2004-02-26,30.02
2004-02-27,25.7
2004-02-28,29.48
2004-02-29,27.32
2004-03-01,31.1
2004-03-02,27.14
2004-03-03,21.38
2004-03-04,29.3
2004-03-05,29.3
2004-03-06,32.9
2004-03-07,36.5
2004-03-08,40.1
2004-03-09,39.56
2004-03-10,34.52
2004-03-11,37.4
2004-03-12,38.84
2004-03-13,38.84
2004-03-14,40.46
2004-03-15,36.5
2004-03-16,37.76
2004-03-17,38.66
2004-03-18,43.16
2004-03-19,38.3
2004-03-20,42.08
2004-03-21,47.84
2004-03-22,43.52
2004-03-23,39.2
2004-03-24,38.12
2004-03-25,32.0
2004-03-26,29.12
2004-03-27,33.98
2004-03-28,36.86
2004-03-29,45.5
2004-03-30,39.02
2004-03-31,28.94
2004-04-01,29.3
2004-04-02,37.04
2004-04-03,42.26
2004-04-04,43.88
2004-04-05,41.36
2004-04-06,41.18
2004-04-07,40.82
2004-04-08,40.46
2004-04-09,39.2
2004-04-10,40.1
2004-04-11,42.8
2004-04-12,44.96
2004-04-13,39.56
2004-04-14,34.16
2004-04-15,30.38
2004-04-16,30.92
2004-04-17,31.82
2004-04-18,32.0
2004-04-19,33.8
2004-04-20,33.08
2004-04-21,32.36
2004-04-22,37.58
2004-04-23,37.76
2004-04-24,40.28
2004-04-25,45.68
2004-04-26,49.1
2004-04-27,49.64
2004-04-28,37.22
2004-04-29,38.48
2004-04-30,44.42
2004-05-01,48.02
2004-05-02,50.0
2004-05-03,49.82
2004-05-04,47.84
2004-05-05,48.02
2004-05-06,46.76
2004-05-07,45.68
2004-05-08,41.0
2004-05-09,37.22
2004-05-10,34.88
2004-05-11,34.88
2004-05-12,38.66
2004-05-13,42.98
2004-05-14,44.96
2004-05-15,41.18
2004-05-16,40.82
2004-05-17,39.2
2004-05-18,37.76
2004-05-19,41.18
2004-05-20,42.08
2004-05-21,44.96
2004-05-22,41.54
2004-05-23,40.28
2004-05-24,42.98
2004-05-25,46.04
2004-05-26,50.36
2004-05-27,43.52
2004-05-28,39.02
2004-05-29,40.1
2004-05-30,44.06
2004-05-31,47.84
2004-06-01,50.54
2004-06-02,53.6
2004-06-03,55.22
2004-06-04,57.74
2004-06-05,50.72
2004-06-06,43.34
2004-06-07,37.04
2004-06-08,39.2
2004-06-09,39.38
2004-06-10,42.26
2004-06-11,42.8
2004-06-12,45.86
2004-06-13,50.72
2004-06-14,49.82
2004-06-15,50.72
2004-06-16,51.44
2004-06-17,53.06
2004-06-18,53.96
2004-06-19,53.42
2004-06-20,51.8
2004-06-21,54.68
2004-06-22,60.26
2004-06-23,
2004-06-24,57.02
2004-06-25,56.66
2004-06-26,55.94
2004-06-27,58.46
2004-06-28,59.0
2004-06-29,55.76
2004-06-30,56.12
2004-07-01,55.22
2004-07-02,56.48
2004-07-03,57.02
2004-07-04,57.02
2004-07-05,58.64
2004-07-06,60.44
2004-07-07,55.04
2004-07-08,53.42
2004-07-09,54.14
2004-07-10,51.98
2004-07-11,53.78
2004-07-12,57.56
2004-07-13,56.48
2004-07-14,57.2
2004-07-15,56.84
2004-07-16,61.88
2004-07-17,66.02
2004-07-18,61.7
2004-07-19,59.72
2004-07-20,58.82
2004-07-21,62.24
2004-07-22,63.32
2004-07-23,64.4
2004-07-24,64.76
2004-07-25,62.06
2004-07-26,61.16
2004-07-27,61.16
2004-07-28,62.24
2004-07-29,60.44
2004-07-30,56.12
2004-07-31,59.18
2004-08-01,58.64
2004-08-02,54.68
2004-08-03,53.6
2004-08-04,56.3
2004-08-05,53.42
2004-08-06,52.16
2004-08-07,52.16
2004-08-08,59.36
2004-08-09,62.42
2004-08-10,62.96
2004-08-11,65.84
2004-08-12,64.04
2004-08-13,66.2
2004-08-14,61.7
2004-08-15,59.54
2004-08-16,57.56
2004-08-17,57.02
2004-08-18,59.72
2004-08-19,61.7
2004-08-20,60.08
2004-08-21,57.92
2004-08-22,48.92
2004-08-23,45.5
2004-08-24,49.28
2004-08-25,48.02
2004-08-26,45.5
2004-08-27,48.92
2004-08-28,53.42
2004-08-29,56.12
2004-08-30,58.64
2004-08-31,56.84
2004-09-01,53.6
2004-09-02,41.36
2004-09-03,44.6
2004-09-04,50.0
2004-09-05,47.66
2004-09-06,52.52
2004-09-07,52.7
2004-09-08,51.26
2004-09-09,50.0
2004-09-10,51.44
2004-09-11,54.68
2004-09-12,48.56
2004-09-13,40.64
2004-09-14,41.0
2004-09-15,42.62
2004-09-16,45.32
2004-09-17,46.76
2004-09-18,36.14
2004-09-19,35.24
2004-09-20,36.68
2004-09-21,39.92
2004-09-22,46.76
2004-09-23,46.58
2004-09-24,49.64
2004-09-25,49.46
2004-09-26,48.2
2004-09-27,49.28
2004-09-28,50.18
2004-09-29,48.2
2004-09-30,45.68
2004-10-01,45.5
2004-10-02,46.76
2004-10-03,46.58
2004-10-04,47.12
2004-10-05,46.58
2004-10-06,47.3
2004-10-07,46.58
2004-10-08,51.08
2004-10-09,35.96
2004-10-10,34.88
2004-10-11,39.74
2004-10-12,45.5
2004-10-13,46.58
2004-10-14,46.4
2004-10-15,44.24
2004-10-16,44.96
2004-10-17,37.22
2004-10-18,34.16
2004-10-19,34.88
2004-10-20,36.14
2004-10-21,34.52
2004-10-22,35.42
2004-10-23,33.44
2004-10-24,29.84
2004-10-25,29.48
2004-10-26,28.04
2004-10-27,30.02
2004-10-28,37.58
2004-10-29,34.52
2004-10-30,35.06
2004-10-31,25.52
2004-11-01,28.76
2004-11-02,40.46
2004-11-03,28.04
2004-11-04,29.66
2004-11-05,30.56
2004-11-06,33.44
2004-11-07,35.78
2004-11-08,39.02
2004-11-09,35.42
2004-11-10,36.32
2004-11-11,35.78
2004-11-12,38.48
2004-11-13,34.7
2004-11-14,33.62
2004-11-15,39.92
2004-11-16,36.14
2004-11-17,31.1
2004-11-18,31.64
2004-11-19,24.8
2004-11-20,22.1
2004-11-21,24.98
2004-11-22,29.66
2004-11-23,29.12
2004-11-24,37.76
2004-11-25,34.88
2004-11-26,26.42
2004-11-27,23.9
2004-11-28,14.36
2004-11-29,14.36
2004-11-30,27.86
2004-12-01,25.34
2004-12-02,21.2
2004-12-03,20.66
2004-12-04,30.38
2004-12-05,27.14
2004-12-06,27.86
2004-12-07,30.38
2004-12-08,33.26
2004-12-09,39.2
2004-12-10,41.18
2004-12-11,43.7
2004-12-12,39.92
2004-12-13,39.92
2004-12-14,33.8
2004-12-15,26.24
2004-12-16,27.5
2004-12-17,30.92
2004-12-18,33.08
2004-12-19,32.0
2004-12-20,26.24
2004-12-21,23.9
2004-12-22,21.38
2004-12-23,21.38
2004-12-24,23.72
2004-12-25,31.28
2004-12-26,30.56
2004-12-27,35.78
2004-12-28,33.26
2004-12-29,30.02
2004-12-30,26.06
2004-12-31,25.88
2005-01-01,24.62
2005-01-02,22.82
2005-01-03,11.48
2005-01-04,16.88
2005-01-05,23.72
2005-01-06,24.44
2005-01-07,25.16
2005-01-08,23.18
2005-01-09,26.96
2005-01-10,26.42
2005-01-11,18.5
2005-01-12,8.24
2005-01-13,12.74
2005-01-14,26.78
2005-01-15,36.68
2005-01-16,35.6
2005-01-17,38.48
2005-01-18,42.08
2005-01-19,44.42
2005-01-20,39.92
2005-01-21,32.0
2005-01-22,33.8
2005-01-23,36.14
2005-01-24,33.26
2005-01-25,39.74
2005-01-26,37.04
2005-01-27,34.16
2005-01-28,31.46
2005-01-29,28.04
2005-01-30,25.34
2005-01-31,25.52
2005-02-01,24.44
2005-02-02,31.1
2005-02-03,33.44
2005-02-04,35.6
2005-02-05,24.8
2005-02-06,22.28
2005-02-07,22.1
2005-02-08,17.24
2005-02-09,19.58
2005-02-10,24.08
2005-02-11,29.3
2005-02-12,30.2
2005-02-13,31.1
2005-02-14,23.72
2005-02-15,16.16
2005-02-16,22.64
2005-02-17,30.2
2005-02-18,34.16
2005-02-19,35.24
2005-02-20,32.0
2005-02-21,31.28
2005-02-22,34.34
2005-02-23,34.88
2005-02-24,29.66
2005-02-25,30.02
2005-02-26,30.92
2005-02-27,36.68
2005-02-28,32.9
2005-03-01,32.18
2005-03-02,31.64
2005-03-03,29.84
2005-03-04,36.14
2005-03-05,33.98
2005-03-06,37.22
2005-03-07,39.02
2005-03-08,39.2
2005-03-09,39.38
2005-03-10,38.84
2005-03-11,40.46
2005-03-12,39.56
2005-03-13,34.88
2005-03-14,31.64
2005-03-15,33.44
2005-03-16,35.78
2005-03-17,33.8
2005-03-18,35.6
2005-03-19,34.88
2005-03-20,31.46
2005-03-21,32.54
2005-03-22,33.98
2005-03-23,31.1
2005-03-24,26.06
2005-03-25,30.02
2005-03-26,37.94
2005-03-27,35.6
2005-03-28,31.28
2005-03-29,29.12
2005-03-30,25.7
2005-03-31,34.7
2005-04-01,38.12
2005-04-02,34.88
2005-04-03,31.82
2005-04-04,28.76
2005-04-05,39.2
2005-04-06,48.02
2005-04-07,35.24
2005-04-08,31.1
2005-04-09,33.98
2005-04-10,35.42
2005-04-11,38.3
2005-04-12,32.0
2005-04-13,27.32
2005-04-14,30.74
2005-04-15,36.14
2005-04-16,39.92
2005-04-17,33.98
2005-04-18,30.02
2005-04-19,32.9
2005-04-20,38.3
2005-04-21,38.3
2005-04-22,44.24
2005-04-23,39.02
2005-04-24,36.86
2005-04-25,39.74
2005-04-26,42.8
2005-04-27,42.26
2005-04-28,41.72
2005-04-29,40.28
2005-04-30,38.66
2005-05-01,39.92
2005-05-02,40.64
2005-05-03,44.78
2005-05-04,45.32
2005-05-05,44.24
2005-05-06,40.46
2005-05-07,41.36
2005-05-08,39.92
2005-05-09,34.52
2005-05-10,35.06
2005-05-11,39.56
2005-05-12,43.16
2005-05-13,47.3
2005-05-14,49.46
2005-05-15,45.68
2005-05-16,37.58
2005-05-17,35.78
2005-05-18,38.66
2005-05-19,41.72
2005-05-20,40.64
2005-05-21,46.4
2005-05-22,47.84
2005-05-23,43.7
2005-05-24,46.22
2005-05-25,50.9
2005-05-26,55.4
2005-05-27,56.84
2005-05-28,52.52
2005-05-29,47.84
2005-05-30,52.16
2005-05-31,47.3
2005-06-01,42.98
2005-06-02,42.26
2005-06-03,46.4
2005-06-04,48.2
2005-06-05,37.76
2005-06-06,33.98
2005-06-07,36.68
2005-06-08,41.72
2005-06-09,44.42
2005-06-10,46.58
2005-06-11,45.5
2005-06-12,44.78
2005-06-13,49.46
2005-06-14,50.36
2005-06-15,50.0
2005-06-16,45.14
2005-06-17,40.82
2005-06-18,42.62
2005-06-19,49.1
2005-06-20,51.44
2005-06-21,52.16
2005-06-22,
2005-06-23,53.78
2005-06-24,56.84
2005-06-25,51.62
2005-06-26,51.8
2005-06-27,51.62
2005-06-28,50.36
2005-06-29,54.5
2005-06-30,59.0
2005-07-01,57.56
2005-07-02,52.7
2005-07-03,53.96
2005-07-04,57.92
2005-07-05,60.26
2005-07-06,57.38
2005-07-07,58.64
2005-07-08,57.74
2005-07-09,53.42
2005-07-10,53.6
2005-07-11,57.2
2005-07-12,61.34
2005-07-13,59.72
2005-07-14,62.96
2005-07-15,66.56
2005-07-16,63.14
2005-07-17,62.24
2005-07-18,64.22
2005-07-19,62.42
2005-07-20,62.42
2005-07-21,65.3
2005-07-22,63.5
2005-07-23,60.08
2005-07-24,57.74
2005-07-25,56.48
2005-07-26,59.72
2005-07-27,64.22
2005-07-28,61.52
2005-07-29,60.98
2005-07-30,62.24
2005-07-31,63.5
2005-08-01,60.26
2005-08-02,58.64